sat.trackr.live / text

‹ back to catalog

STARLINK-36407

NORAD 67612 · 2026-018Z

PAYLOAD ACTIVE UNKNOWN

§ Identity

Operator
Country
US
Launch date
2026-01-29
Launch site
AFWTR
Launch vehicle
Mass (kg)
RCS (m²)

Purposes: comms

External: N2YO · Heavens-Above · Gunter

§ Orbital elements

Epoch: 2026-05-25T03:06:54.808992Z

Period
93.91 min
Inclination
97.2850°
Eccentricity
0.0000398
Mean motion
15.33449797 rev/d
Perigee alt
465.3 km
Apogee alt
465.8 km
Semi-major
6,843.7 km
B*
3.5788e-4
RAAN
210.3331°
Arg perigee
114.1920°
Mean anomaly
245.9364°
Rev number
1,910

§ Raw data

STARLINK-364071 67612U 26018Z   26145.12980103  .00011498  00000+0  35788-3 0  99972 67612  97.2850 210.3331 0000398 114.1920 245.9364 15.33449797 19102

JSON: /api/v1/satellites/67612 · /tle

For live sub-satellite position, see the globe view (requires WebGL).

§ Visibility from observer

Set your observer location to see the next 7 days of passes ≥ 10°. The values pass through the URL so the page stays shareable.

No JS? Fill the form by hand. The geolocation button needs JavaScript.